owner,sensor,date,latitude,longitude,vertical_datum,sea_water_temperature,qcFlag
Anadarko,ioos:station:wmo:42398:1,2020-01-01T00:06:00Z,26.1322,-92.0403,100.6,21.4,11111222
Anadarko,ioos:station:wmo:42398:1,2020-01-01T00:26:00Z,26.1322,-92.0403,100.6,21.4,11111222
Anadarko,ioos:station:wmo:42398:1,2020-01-01T00:45:00Z,26.1322,-92.0403,100.6,21.4,11111222
Anadarko,ioos:station:wmo:42398:1,2020-01-01T01:05:00Z,26.1322,-92.0403,100.6,21.4,11111222
Anadarko,ioos:station:wmo:42398:1,2020-01-01T01:25:00Z,26.1322,-92.0403,100.6,21.4,11111222
Anadarko,ioos:station:wmo:42398:1,2020-01-01T01:45:00Z,26.1322,-92.0403,100.6,21.3,11111222
Anadarko,ioos:station:wmo:42398:1,2020-01-01T02:05:00Z,26.1322,-92.0403,100.6,21.3,11111222
Anadarko,ioos:station:wmo:42398:1,2020-01-01T02:25:00Z,26.1322,-92.0403,100.6,21.3,11111222
Anadarko,ioos:station:wmo:42398:1,2020-01-01T02:45:00Z,26.1322,-92.0403,100.6,21.4,11111222
Anadarko,ioos:station:wmo:42398:1,2020-01-01T03:05:00Z,26.1322,-92.0403,100.6,21.4,11111222
Anadarko,ioos:station:wmo:42398:1,2020-01-01T03:25:00Z,26.1322,-92.0403,100.6,21.3,11111222
Anadarko,ioos:station:wmo:42398:1,2020-01-01T03:45:00Z,26.1322,-92.0403,100.6,21.3,11111222
Anadarko,ioos:station:wmo:42398:1,2020-01-01T04:05:00Z,26.1322,-92.0403,100.6,21.3,11111222
Anadarko,ioos:station:wmo:42398:1,2020-01-01T04:25:00Z,26.1322,-92.0403,100.6,21.3,11111222
Anadarko,ioos:station:wmo:42398:1,2020-01-01T04:45:00Z,26.1322,-92.0403,100.6,21.4,11111222
Anadarko,ioos:station:wmo:42398:1,2020-01-01T05:05:00Z,26.1322,-92.0403,100.6,21.4,11111222
Anadarko,ioos:station:wmo:42398:1,2020-01-01T05:25:00Z,26.1322,-92.0403,100.6,21.3,11111222
Anadarko,ioos:station:wmo:42398:1,2020-01-01T05:45:00Z,26.1322,-92.0403,100.6,21.4,11111222
Anadarko,ioos:station:wmo:42398:1,2020-01-01T06:05:00Z,26.1322,-92.0403,100.6,21.4,11111222
Anadarko,ioos:station:wmo:42398:1,2020-01-01T06:25:00Z,26.1322,-92.0403,100.6,21.4,11111222
Anadarko,ioos:station:wmo:42398:1,2020-01-01T06:45:00Z,26.1322,-92.0403,100.6,21.5,11111222
Anadarko,ioos:station:wmo:42398:1,2020-01-01T07:05:00Z,26.1322,-92.0403,100.6,21.5,11111222
Anadarko,ioos:station:wmo:42398:1,2020-01-01T07:25:00Z,26.1322,-92.0403,100.6,21.5,11111222
Anadarko,ioos:station:wmo:42398:1,2020-01-01T07:45:00Z,26.1322,-92.0403,100.6,21.5,11111222
Anadarko,ioos:station:wmo:42398:1,2020-01-01T08:05:00Z,26.1322,-92.0403,100.6,21.5,11111222
Anadarko,ioos:station:wmo:42398:1,2020-01-01T08:25:00Z,26.1322,-92.0403,100.6,21.5,11111222
Anadarko,ioos:station:wmo:42398:1,2020-01-01T08:45:00Z,26.1322,-92.0403,100.6,21.5,11111222
Anadarko,ioos:station:wmo:42398:1,2020-01-01T09:05:00Z,26.1322,-92.0403,100.6,21.5,11111222
Anadarko,ioos:station:wmo:42398:1,2020-01-01T09:25:00Z,26.1322,-92.0403,100.6,21.5,11111222
Anadarko,ioos:station:wmo:42398:1,2020-01-01T09:45:00Z,26.1322,-92.0403,100.6,21.6,11111222
Anadarko,ioos:station:wmo:42398:1,2020-01-01T10:05:00Z,26.1322,-92.0403,100.6,21.5,11111222
Anadarko,ioos:station:wmo:42398:1,2020-01-01T10:25:00Z,26.1322,-92.0403,100.6,21.6,11111222
Anadarko,ioos:station:wmo:42398:1,2020-01-01T10:45:00Z,26.1322,-92.0403,100.6,21.7,11111222
Anadarko,ioos:station:wmo:42398:1,2020-01-01T11:05:00Z,26.1322,-92.0403,100.6,21.6,11111222
Anadarko,ioos:station:wmo:42398:1,2020-01-01T11:25:00Z,26.1322,-92.0403,100.6,21.7,11111222
Anadarko,ioos:station:wmo:42398:1,2020-01-01T11:44:00Z,26.1322,-92.0403,100.6,21.7,11111222
Anadarko,ioos:station:wmo:42398:1,2020-01-01T12:04:00Z,26.1322,-92.0403,100.6,21.6,11111222
Anadarko,ioos:station:wmo:42398:1,2020-01-01T12:24:00Z,26.1322,-92.0403,100.6,21.7,11111222
Anadarko,ioos:station:wmo:42398:1,2020-01-01T12:44:00Z,26.1322,-92.0403,100.6,21.7,11111222
Anadarko,ioos:station:wmo:42398:1,2020-01-01T13:04:00Z,26.1322,-92.0403,100.6,21.8,11111222
Anadarko,ioos:station:wmo:42398:1,2020-01-01T13:24:00Z,26.1322,-92.0403,100.6,21.7,11111222
Anadarko,ioos:station:wmo:42398:1,2020-01-01T13:44:00Z,26.1322,-92.0403,100.6,21.9,11111222
Anadarko,ioos:station:wmo:42398:1,2020-01-01T14:03:00Z,26.1322,-92.0403,100.6,21.8,11111222
Anadarko,ioos:station:wmo:42398:1,2020-01-01T14:23:00Z,26.1322,-92.0403,100.6,21.8,11111222
Anadarko,ioos:station:wmo:42398:1,2020-01-01T14:43:00Z,26.1322,-92.0403,100.6,21.9,11111222
Anadarko,ioos:station:wmo:42398:1,2020-01-01T15:03:00Z,26.1322,-92.0403,100.6,21.8,11111222
Anadarko,ioos:station:wmo:42398:1,2020-01-01T15:23:00Z,26.1322,-92.0403,100.6,21.7,11111222
Anadarko,ioos:station:wmo:42398:1,2020-01-01T15:43:00Z,26.1322,-92.0403,100.6,21.7,11111222
Anadarko,ioos:station:wmo:42398:1,2020-01-01T16:03:00Z,26.1322,-92.0403,100.6,21.6,11111222
Anadarko,ioos:station:wmo:42398:1,2020-01-01T16:23:00Z,26.1322,-92.0403,100.6,21.6,11111222
Anadarko,ioos:station:wmo:42398:1,2020-01-01T16:43:00Z,26.1322,-92.0403,100.6,21.6,11111222
Anadarko,ioos:station:wmo:42398:1,2020-01-01T17:03:00Z,26.1322,-92.0403,100.6,21.6,11111222
Anadarko,ioos:station:wmo:42398:1,2020-01-01T17:23:00Z,26.1322,-92.0403,100.6,21.6,11111222
Anadarko,ioos:station:wmo:42398:1,2020-01-01T17:43:00Z,26.1322,-92.0403,100.6,21.7,11111222
Anadarko,ioos:station:wmo:42398:1,2020-01-01T18:03:00Z,26.1322,-92.0403,100.6,21.7,11111222
Anadarko,ioos:station:wmo:42398:1,2020-01-01T18:23:00Z,26.1322,-92.0403,100.6,21.7,11111222
Anadarko,ioos:station:wmo:42398:1,2020-01-01T18:43:00Z,26.1322,-92.0403,100.6,21.6,11111222
Anadarko,ioos:station:wmo:42398:1,2020-01-01T19:03:00Z,26.1322,-92.0403,100.6,21.6,11111222
Anadarko,ioos:station:wmo:42398:1,2020-01-01T19:23:00Z,26.1322,-92.0403,100.6,21.6,11111222
Anadarko,ioos:station:wmo:42398:1,2020-01-01T19:43:00Z,26.1322,-92.0403,100.6,21.5,11111222
Anadarko,ioos:station:wmo:42398:1,2020-01-01T20:03:00Z,26.1322,-92.0403,100.6,21.5,11111222
Anadarko,ioos:station:wmo:42398:1,2020-01-01T20:23:00Z,26.1322,-92.0403,100.6,21.5,11111222
Anadarko,ioos:station:wmo:42398:1,2020-01-01T20:43:00Z,26.1322,-92.0403,100.6,21.4,11111222
Anadarko,ioos:station:wmo:42398:1,2020-01-01T21:03:00Z,26.1322,-92.0403,100.6,21.4,11111222
Anadarko,ioos:station:wmo:42398:1,2020-01-01T21:23:00Z,26.1322,-92.0403,100.6,21.4,11111222
Anadarko,ioos:station:wmo:42398:1,2020-01-01T21:42:00Z,26.1322,-92.0403,100.6,21.4,11111222
Anadarko,ioos:station:wmo:42398:1,2020-01-01T22:02:00Z,26.1322,-92.0403,100.6,21.6,11111222
Anadarko,ioos:station:wmo:42398:1,2020-01-01T22:22:00Z,26.1322,-92.0403,100.6,21.6,11111222
Anadarko,ioos:station:wmo:42398:1,2020-01-01T22:42:00Z,26.1322,-92.0403,100.6,21.6,11111222
Anadarko,ioos:station:wmo:42398:1,2020-01-01T23:02:00Z,26.1322,-92.0403,100.6,21.4,11111222
Anadarko,ioos:station:wmo:42398:1,2020-01-01T23:22:00Z,26.1322,-92.0403,100.6,21.4,11111222
Anadarko,ioos:station:wmo:42398:1,2020-01-01T23:42:00Z,26.1322,-92.0403,100.6,21.4,11111222
Anadarko,ioos:station:wmo:42398:1,2020-01-02T00:02:00Z,26.1322,-92.0403,100.6,21.3,11111222
Anadarko,ioos:station:wmo:42398:1,2020-01-02T00:22:00Z,26.1322,-92.0403,100.6,21.4,11111222
Anadarko,ioos:station:wmo:42398:1,2020-01-02T00:42:00Z,26.1322,-92.0403,100.6,21.4,11111222
Anadarko,ioos:station:wmo:42398:1,2020-01-02T01:02:00Z,26.1322,-92.0403,100.6,21.4,11111222
Anadarko,ioos:station:wmo:42398:1,2020-01-02T01:22:00Z,26.1322,-92.0403,100.6,21.4,11111222
Anadarko,ioos:station:wmo:42398:1,2020-01-02T01:42:00Z,26.1322,-92.0403,100.6,21.4,11111222
Anadarko,ioos:station:wmo:42398:1,2020-01-02T02:02:00Z,26.1322,-92.0403,100.6,21.4,11111222
Anadarko,ioos:station:wmo:42398:1,2020-01-02T02:22:00Z,26.1322,-92.0403,100.6,21.4,11111222
Anadarko,ioos:station:wmo:42398:1,2020-01-02T02:41:00Z,26.1322,-92.0403,100.6,21.4,11111222
Anadarko,ioos:station:wmo:42398:1,2020-01-02T03:00:00Z,26.1322,-92.0403,100.6,21.4,11111222
Anadarko,ioos:station:wmo:42398:1,2020-01-02T03:20:00Z,26.1322,-92.0403,100.6,21.4,11111222
Anadarko,ioos:station:wmo:42398:1,2020-01-02T03:40:00Z,26.1322,-92.0403,100.6,21.4,11111222
Anadarko,ioos:station:wmo:42398:1,2020-01-02T04:00:00Z,26.1322,-92.0403,100.6,21.5,11111222
Anadarko,ioos:station:wmo:42398:1,2020-01-02T04:19:00Z,26.1322,-92.0403,100.6,21.5,11111222
Anadarko,ioos:station:wmo:42398:1,2020-01-02T04:38:00Z,26.1322,-92.0403,100.6,21.5,11111222
Anadarko,ioos:station:wmo:42398:1,2020-01-02T04:58:00Z,26.1322,-92.0403,100.6,21.5,11111222
Anadarko,ioos:station:wmo:42398:1,2020-01-02T05:17:00Z,26.1322,-92.0403,100.6,21.5,11111222
Anadarko,ioos:station:wmo:42398:1,2020-01-02T05:37:00Z,26.1322,-92.0403,100.6,21.5,11111222
Anadarko,ioos:station:wmo:42398:1,2020-01-02T05:57:00Z,26.1322,-92.0403,100.6,21.5,11111222
Anadarko,ioos:station:wmo:42398:1,2020-01-02T06:16:00Z,26.1322,-92.0403,100.6,21.4,11111222
Anadarko,ioos:station:wmo:42398:1,2020-01-02T06:35:00Z,26.1322,-92.0403,100.6,21.5,11111222
Anadarko,ioos:station:wmo:42398:1,2020-01-02T06:55:00Z,26.1322,-92.0403,100.6,21.6,11111222
Anadarko,ioos:station:wmo:42398:1,2020-01-02T07:15:00Z,26.1322,-92.0403,100.6,21.6,11111222
Anadarko,ioos:station:wmo:42398:1,2020-01-02T07:35:00Z,26.1322,-92.0403,100.6,21.6,11111222
Anadarko,ioos:station:wmo:42398:1,2020-01-02T07:55:00Z,26.1322,-92.0403,100.6,21.7,11111222
Anadarko,ioos:station:wmo:42398:1,2020-01-02T08:15:00Z,26.1322,-92.0403,100.6,21.6,11111222
Anadarko,ioos:station:wmo:42398:1,2020-01-02T08:34:00Z,26.1322,-92.0403,100.6,21.6,11111222
Anadarko,ioos:station:wmo:42398:1,2020-01-02T08:54:00Z,26.1322,-92.0403,100.6,21.6,11111222
Anadarko,ioos:station:wmo:42398:1,2020-01-02T09:14:00Z,26.1322,-92.0403,100.6,21.6,11111222
Anadarko,ioos:station:wmo:42398:1,2020-01-02T09:34:00Z,26.1322,-92.0403,100.6,21.7,11111222
Anadarko,ioos:station:wmo:42398:1,2020-01-02T09:54:00Z,26.1322,-92.0403,100.6,21.6,11111222
Anadarko,ioos:station:wmo:42398:1,2020-01-02T10:14:00Z,26.1322,-92.0403,100.6,21.4,11111222
Anadarko,ioos:station:wmo:42398:1,2020-01-02T10:34:00Z,26.1322,-92.0403,100.6,21.4,11111222
Anadarko,ioos:station:wmo:42398:1,2020-01-02T10:54:00Z,26.1322,-92.0403,100.6,21.3,11111222
Anadarko,ioos:station:wmo:42398:1,2020-01-02T11:14:00Z,26.1322,-92.0403,100.6,21.3,11111222
Anadarko,ioos:station:wmo:42398:1,2020-01-02T11:34:00Z,26.1322,-92.0403,100.6,21.3,11111222
Anadarko,ioos:station:wmo:42398:1,2020-01-02T11:54:00Z,26.1322,-92.0403,100.6,21.3,11111222
Anadarko,ioos:station:wmo:42398:1,2020-01-02T12:14:00Z,26.1322,-92.0403,100.6,21.3,11111222
Anadarko,ioos:station:wmo:42398:1,2020-01-02T12:34:00Z,26.1322,-92.0403,100.6,21.3,11111222
Anadarko,ioos:station:wmo:42398:1,2020-01-02T12:54:00Z,26.1322,-92.0403,100.6,21.3,11111222
Anadarko,ioos:station:wmo:42398:1,2020-01-02T13:14:00Z,26.1322,-92.0403,100.6,21.3,11111222
Anadarko,ioos:station:wmo:42398:1,2020-01-02T13:34:00Z,26.1322,-92.0403,100.6,21.3,11111222
Anadarko,ioos:station:wmo:42398:1,2020-01-02T13:54:00Z,26.1322,-92.0403,100.6,21.3,11111222
Anadarko,ioos:station:wmo:42398:1,2020-01-02T14:14:00Z,26.1322,-92.0403,100.6,21.3,11111222
Anadarko,ioos:station:wmo:42398:1,2020-01-02T14:34:00Z,26.1322,-92.0403,100.6,21.5,11111222
Anadarko,ioos:station:wmo:42398:1,2020-01-02T14:54:00Z,26.1322,-92.0403,100.6,21.6,11111222
Anadarko,ioos:station:wmo:42398:1,2020-01-02T15:14:00Z,26.1322,-92.0403,100.6,21.7,11111222
Anadarko,ioos:station:wmo:42398:1,2020-01-02T15:34:00Z,26.1322,-92.0403,100.6,21.8,11111222
Anadarko,ioos:station:wmo:42398:1,2020-01-02T15:54:00Z,26.1322,-92.0403,100.6,21.7,11111222
Anadarko,ioos:station:wmo:42398:1,2020-01-02T16:14:00Z,26.1322,-92.0403,100.6,21.8,11111222
Anadarko,ioos:station:wmo:42398:1,2020-01-02T16:34:00Z,26.1322,-92.0403,100.6,21.8,11111222
Anadarko,ioos:station:wmo:42398:1,2020-01-02T16:54:00Z,26.1322,-92.0403,100.6,21.8,11111222
Anadarko,ioos:station:wmo:42398:1,2020-01-02T17:14:00Z,26.1322,-92.0403,100.6,21.8,11111222
Anadarko,ioos:station:wmo:42398:1,2020-01-02T17:34:00Z,26.1322,-92.0403,100.6,21.8,11111222
Anadarko,ioos:station:wmo:42398:1,2020-01-02T17:54:00Z,26.1322,-92.0403,100.6,21.8,11111222
Anadarko,ioos:station:wmo:42398:1,2020-01-02T18:14:00Z,26.1322,-92.0403,100.6,21.9,11111222
Anadarko,ioos:station:wmo:42398:1,2020-01-02T18:33:00Z,26.1322,-92.0403,100.6,21.7,11111222
Anadarko,ioos:station:wmo:42398:1,2020-01-02T18:53:00Z,26.1322,-92.0403,100.6,21.7,11111222
Anadarko,ioos:station:wmo:42398:1,2020-01-02T19:13:00Z,26.1322,-92.0403,100.6,21.7,11111222
Anadarko,ioos:station:wmo:42398:1,2020-01-02T19:33:00Z,26.1322,-92.0403,100.6,21.6,11111222
Anadarko,ioos:station:wmo:42398:1,2020-01-02T19:53:00Z,26.1322,-92.0403,100.6,21.6,11111222
Anadarko,ioos:station:wmo:42398:1,2020-01-02T20:13:00Z,26.1322,-92.0403,100.6,21.6,11111222
Anadarko,ioos:station:wmo:42398:1,2020-01-02T20:33:00Z,26.1322,-92.0403,100.6,21.6,11111222
Anadarko,ioos:station:wmo:42398:1,2020-01-02T20:53:00Z,26.1322,-92.0403,100.6,21.6,11111222
Anadarko,ioos:station:wmo:42398:1,2020-01-02T21:13:00Z,26.1322,-92.0403,100.6,21.7,11111222
Anadarko,ioos:station:wmo:42398:1,2020-01-02T21:33:00Z,26.1322,-92.0403,100.6,21.7,11111222
Anadarko,ioos:station:wmo:42398:1,2020-01-02T21:53:00Z,26.1322,-92.0403,100.6,21.7,11111222
Anadarko,ioos:station:wmo:42398:1,2020-01-02T22:13:00Z,26.1322,-92.0403,100.6,21.7,11111222
Anadarko,ioos:station:wmo:42398:1,2020-01-02T22:33:00Z,26.1322,-92.0403,100.6,21.7,11111222
Anadarko,ioos:station:wmo:42398:1,2020-01-02T22:53:00Z,26.1322,-92.0403,100.6,21.7,11111222
Anadarko,ioos:station:wmo:42398:1,2020-01-02T23:13:00Z,26.1322,-92.0403,100.6,21.7,11111222
Anadarko,ioos:station:wmo:42398:1,2020-01-02T23:33:00Z,26.1322,-92.0403,100.6,21.7,11111222
Anadarko,ioos:station:wmo:42398:1,2020-01-02T23:53:00Z,26.1322,-92.0403,100.6,21.6,11111222
Anadarko,ioos:station:wmo:42398:1,2020-01-03T00:13:00Z,26.1322,-92.0403,100.6,21.5,11111222
Anadarko,ioos:station:wmo:42398:1,2020-01-03T00:33:00Z,26.1322,-92.0403,100.6,21.5,11111222
Anadarko,ioos:station:wmo:42398:1,2020-01-03T00:53:00Z,26.1322,-92.0403,100.6,21.5,11111222
Anadarko,ioos:station:wmo:42398:1,2020-01-03T01:12:00Z,26.1322,-92.0403,100.6,21.4,11111222
Anadarko,ioos:station:wmo:42398:1,2020-01-03T01:32:00Z,26.1322,-92.0403,100.6,21.3,11111222
Anadarko,ioos:station:wmo:42398:1,2020-01-03T01:52:00Z,26.1322,-92.0403,100.6,21.3,11111222
Anadarko,ioos:station:wmo:42398:1,2020-01-03T02:11:00Z,26.1322,-92.0403,100.6,21.2,11111222
Anadarko,ioos:station:wmo:42398:1,2020-01-03T02:31:00Z,26.1322,-92.0403,100.6,21.3,11111222
Anadarko,ioos:station:wmo:42398:1,2020-01-03T02:51:00Z,26.1322,-92.0403,100.6,21.3,11111222
Anadarko,ioos:station:wmo:42398:1,2020-01-03T03:11:00Z,26.1322,-92.0403,100.6,21.2,11111222
Anadarko,ioos:station:wmo:42398:1,2020-01-03T03:31:00Z,26.1322,-92.0403,100.6,21.3,11111222
Anadarko,ioos:station:wmo:42398:1,2020-01-03T03:51:00Z,26.1322,-92.0403,100.6,21.2,11111222
Anadarko,ioos:station:wmo:42398:1,2020-01-03T04:11:00Z,26.1322,-92.0403,100.6,21.2,11111222
Anadarko,ioos:station:wmo:42398:1,2020-01-03T04:31:00Z,26.1322,-92.0403,100.6,21.2,11111222
Anadarko,ioos:station:wmo:42398:1,2020-01-03T04:51:00Z,26.1322,-92.0403,100.6,21.2,11111222
Anadarko,ioos:station:wmo:42398:1,2020-01-03T05:11:00Z,26.1322,-92.0403,100.6,21.3,11111222
Anadarko,ioos:station:wmo:42398:1,2020-01-03T05:31:00Z,26.1322,-92.0403,100.6,21.3,11111222
Anadarko,ioos:station:wmo:42398:1,2020-01-03T05:51:00Z,26.1322,-92.0403,100.6,21.3,11111222
Anadarko,ioos:station:wmo:42398:1,2020-01-03T06:11:00Z,26.1322,-92.0403,100.6,21.2,11111222
Anadarko,ioos:station:wmo:42398:1,2020-01-03T06:31:00Z,26.1322,-92.0403,100.6,21.2,11111222
Anadarko,ioos:station:wmo:42398:1,2020-01-03T06:50:00Z,26.1322,-92.0403,100.6,21.3,11111222
Anadarko,ioos:station:wmo:42398:1,2020-01-03T07:10:00Z,26.1322,-92.0403,100.6,21.3,11111222
Anadarko,ioos:station:wmo:42398:1,2020-01-03T07:30:00Z,26.1322,-92.0403,100.6,21.4,11111222
Anadarko,ioos:station:wmo:42398:1,2020-01-03T07:50:00Z,26.1322,-92.0403,100.6,21.4,11111222
Anadarko,ioos:station:wmo:42398:1,2020-01-03T08:10:00Z,26.1322,-92.0403,100.6,21.4,11111222
Anadarko,ioos:station:wmo:42398:1,2020-01-03T08:30:00Z,26.1322,-92.0403,100.6,21.5,11111222
Anadarko,ioos:station:wmo:42398:1,2020-01-03T08:50:00Z,26.1322,-92.0403,100.6,21.5,11111222
Anadarko,ioos:station:wmo:42398:1,2020-01-03T09:10:00Z,26.1322,-92.0403,100.6,21.5,11111222
Anadarko,ioos:station:wmo:42398:1,2020-01-03T09:30:00Z,26.1322,-92.0403,100.6,21.6,11111222
Anadarko,ioos:station:wmo:42398:1,2020-01-03T09:50:00Z,26.1322,-92.0403,100.6,21.6,11111222
Anadarko,ioos:station:wmo:42398:1,2020-01-03T10:10:00Z,26.1322,-92.0403,100.6,21.7,11111222
Anadarko,ioos:station:wmo:42398:1,2020-01-03T10:30:00Z,26.1322,-92.0403,100.6,21.8,11111222
Anadarko,ioos:station:wmo:42398:1,2020-01-03T10:50:00Z,26.1322,-92.0403,100.6,21.8,11111222
Anadarko,ioos:station:wmo:42398:1,2020-01-03T11:10:00Z,26.1322,-92.0403,100.6,21.6,11111222
Anadarko,ioos:station:wmo:42398:1,2020-01-03T11:30:00Z,26.1322,-92.0403,100.6,21.6,11111222
Anadarko,ioos:station:wmo:42398:1,2020-01-03T11:50:00Z,26.1322,-92.0403,100.6,21.6,11111222
Anadarko,ioos:station:wmo:42398:1,2020-01-03T12:10:00Z,26.1322,-92.0403,100.6,21.6,11111222
Anadarko,ioos:station:wmo:42398:1,2020-01-03T12:30:00Z,26.1322,-92.0403,100.6,21.6,11111222
Anadarko,ioos:station:wmo:42398:1,2020-01-03T12:50:00Z,26.1322,-92.0403,100.6,21.5,11111222
Anadarko,ioos:station:wmo:42398:1,2020-01-03T13:10:00Z,26.1322,-92.0403,100.6,21.6,11111222
Anadarko,ioos:station:wmo:42398:1,2020-01-03T13:30:00Z,26.1322,-92.0403,100.6,21.6,11111222
Anadarko,ioos:station:wmo:42398:1,2020-01-03T13:50:00Z,26.1322,-92.0403,100.6,21.6,11111222
Anadarko,ioos:station:wmo:42398:1,2020-01-03T14:10:00Z,26.1322,-92.0403,100.6,21.6,11111222
Anadarko,ioos:station:wmo:42398:1,2020-01-03T14:30:00Z,26.1322,-92.0403,100.6,21.6,11111222
Anadarko,ioos:station:wmo:42398:1,2020-01-03T14:50:00Z,26.1322,-92.0403,100.6,21.6,11111222
Anadarko,ioos:station:wmo:42398:1,2020-01-03T15:10:00Z,26.1322,-92.0403,100.6,21.6,11111222
Anadarko,ioos:station:wmo:42398:1,2020-01-03T15:30:00Z,26.1322,-92.0403,100.6,21.6,11111222
Anadarko,ioos:station:wmo:42398:1,2020-01-03T15:50:00Z,26.1322,-92.0403,100.6,21.5,11111222
Anadarko,ioos:station:wmo:42398:1,2020-01-03T16:10:00Z,26.1322,-92.0403,100.6,21.6,11111222
Anadarko,ioos:station:wmo:42398:1,2020-01-03T16:30:00Z,26.1322,-92.0403,100.6,21.6,11111222
Anadarko,ioos:station:wmo:42398:1,2020-01-03T16:50:00Z,26.1322,-92.0403,100.6,21.7,11111222
Anadarko,ioos:station:wmo:42398:1,2020-01-03T17:09:00Z,26.1322,-92.0403,100.6,21.6,11111222
Anadarko,ioos:station:wmo:42398:1,2020-01-03T17:29:00Z,26.1322,-92.0403,100.6,21.6,11111222
Anadarko,ioos:station:wmo:42398:1,2020-01-03T17:49:00Z,26.1322,-92.0403,100.6,21.5,11111222
Anadarko,ioos:station:wmo:42398:1,2020-01-03T18:08:00Z,26.1322,-92.0403,100.6,21.6,11111222
Anadarko,ioos:station:wmo:42398:1,2020-01-03T18:27:00Z,26.1322,-92.0403,100.6,21.6,11111222
Anadarko,ioos:station:wmo:42398:1,2020-01-03T18:47:00Z,26.1322,-92.0403,100.6,21.6,11111222
Anadarko,ioos:station:wmo:42398:1,2020-01-03T19:07:00Z,26.1322,-92.0403,100.6,21.6,11111222
Anadarko,ioos:station:wmo:42398:1,2020-01-03T19:27:00Z,26.1322,-92.0403,100.6,21.6,11111222
Anadarko,ioos:station:wmo:42398:1,2020-01-03T19:47:00Z,26.1322,-92.0403,100.6,21.6,11111222
Anadarko,ioos:station:wmo:42398:1,2020-01-03T20:07:00Z,26.1322,-92.0403,100.6,21.6,11111222
Anadarko,ioos:station:wmo:42398:1,2020-01-03T20:27:00Z,26.1322,-92.0403,100.6,21.5,11111222
Anadarko,ioos:station:wmo:42398:1,2020-01-03T20:47:00Z,26.1322,-92.0403,100.6,21.6,11111222
Anadarko,ioos:station:wmo:42398:1,2020-01-03T21:07:00Z,26.1322,-92.0403,100.6,21.6,11111222
Anadarko,ioos:station:wmo:42398:1,2020-01-03T21:27:00Z,26.1322,-92.0403,100.6,21.5,11111222
Anadarko,ioos:station:wmo:42398:1,2020-01-03T21:47:00Z,26.1322,-92.0403,100.6,21.4,11111222
Anadarko,ioos:station:wmo:42398:1,2020-01-03T22:07:00Z,26.1322,-92.0403,100.6,21.4,11111222
Anadarko,ioos:station:wmo:42398:1,2020-01-03T22:27:00Z,26.1322,-92.0403,100.6,21.4,11111222
Anadarko,ioos:station:wmo:42398:1,2020-01-03T22:47:00Z,26.1322,-92.0403,100.6,21.4,11111222
Anadarko,ioos:station:wmo:42398:1,2020-01-03T23:07:00Z,26.1322,-92.0403,100.6,21.4,11111222
Anadarko,ioos:station:wmo:42398:1,2020-01-03T23:27:00Z,26.1322,-92.0403,100.6,21.4,11111222
Anadarko,ioos:station:wmo:42398:1,2020-01-03T23:47:00Z,26.1322,-92.0403,100.6,21.3,11111222
Anadarko,ioos:station:wmo:42398:1,2020-01-04T00:07:00Z,26.1322,-92.0403,100.6,21.4,11111222
Anadarko,ioos:station:wmo:42398:1,2020-01-04T00:27:00Z,26.1322,-92.0403,100.6,21.4,11111222
Anadarko,ioos:station:wmo:42398:1,2020-01-04T00:47:00Z,26.1322,-92.0403,100.6,21.3,11111222
Anadarko,ioos:station:wmo:42398:1,2020-01-04T01:07:00Z,26.1322,-92.0403,100.6,21.3,11111222
Anadarko,ioos:station:wmo:42398:1,2020-01-04T01:27:00Z,26.1322,-92.0403,100.6,21.2,11111222
Anadarko,ioos:station:wmo:42398:1,2020-01-04T01:47:00Z,26.1322,-92.0403,100.6,21.2,11111222
Anadarko,ioos:station:wmo:42398:1,2020-01-04T02:07:00Z,26.1322,-92.0403,100.6,21.2,11111222
Anadarko,ioos:station:wmo:42398:1,2020-01-04T02:27:00Z,26.1322,-92.0403,100.6,21.2,11111222
Anadarko,ioos:station:wmo:42398:1,2020-01-04T02:47:00Z,26.1322,-92.0403,100.6,21.2,11111222
Anadarko,ioos:station:wmo:42398:1,2020-01-04T03:07:00Z,26.1322,-92.0403,100.6,21.2,11111222
Anadarko,ioos:station:wmo:42398:1,2020-01-04T03:27:00Z,26.1322,-92.0403,100.6,21.2,11111222
Anadarko,ioos:station:wmo:42398:1,2020-01-04T03:47:00Z,26.1322,-92.0403,100.6,21.2,11111222
Anadarko,ioos:station:wmo:42398:1,2020-01-04T04:07:00Z,26.1322,-92.0403,100.6,21.2,11111222
Anadarko,ioos:station:wmo:42398:1,2020-01-04T04:27:00Z,26.1322,-92.0403,100.6,21.2,11111222
Anadarko,ioos:station:wmo:42398:1,2020-01-04T04:47:00Z,26.1322,-92.0403,100.6,21.2,11111222
Anadarko,ioos:station:wmo:42398:1,2020-01-04T05:06:00Z,26.1322,-92.0403,100.6,21.2,11111222
Anadarko,ioos:station:wmo:42398:1,2020-01-04T05:26:00Z,26.1322,-92.0403,100.6,21.2,11111222
Anadarko,ioos:station:wmo:42398:1,2020-01-04T05:45:00Z,26.1322,-92.0403,100.6,21.3,11111222
Anadarko,ioos:station:wmo:42398:1,2020-01-04T06:05:00Z,26.1322,-92.0403,100.6,21.3,11111222
Anadarko,ioos:station:wmo:42398:1,2020-01-04T06:25:00Z,26.1322,-92.0403,100.6,21.3,11111222
Anadarko,ioos:station:wmo:42398:1,2020-01-04T06:45:00Z,26.1322,-92.0403,100.6,21.3,11111222
Anadarko,ioos:station:wmo:42398:1,2020-01-04T07:05:00Z,26.1322,-92.0403,100.6,21.4,11111222
Anadarko,ioos:station:wmo:42398:1,2020-01-04T07:25:00Z,26.1322,-92.0403,100.6,21.4,11111222
Anadarko,ioos:station:wmo:42398:1,2020-01-04T07:45:00Z,26.1322,-92.0403,100.6,21.5,11111222
Anadarko,ioos:station:wmo:42398:1,2020-01-04T08:05:00Z,26.1322,-92.0403,100.6,21.5,11111222
Anadarko,ioos:station:wmo:42398:1,2020-01-04T08:25:00Z,26.1322,-92.0403,100.6,21.5,11111222
Anadarko,ioos:station:wmo:42398:1,2020-01-04T08:45:00Z,26.1322,-92.0403,100.6,21.6,11111222
Anadarko,ioos:station:wmo:42398:1,2020-01-04T09:05:00Z,26.1322,-92.0403,100.6,21.6,11111222
Anadarko,ioos:station:wmo:42398:1,2020-01-04T09:25:00Z,26.1322,-92.0403,100.6,21.6,11111222
Anadarko,ioos:station:wmo:42398:1,2020-01-04T09:45:00Z,26.1322,-92.0403,100.6,21.6,11111222
Anadarko,ioos:station:wmo:42398:1,2020-01-04T10:05:00Z,26.1322,-92.0403,100.6,21.6,11111222
Anadarko,ioos:station:wmo:42398:1,2020-01-04T10:25:00Z,26.1322,-92.0403,100.6,21.6,11111222
Anadarko,ioos:station:wmo:42398:1,2020-01-04T10:45:00Z,26.1322,-92.0403,100.6,21.6,11111222
Anadarko,ioos:station:wmo:42398:1,2020-01-04T11:05:00Z,26.1322,-92.0403,100.6,21.6,11111222
Anadarko,ioos:station:wmo:42398:1,2020-01-04T11:26:00Z,26.1322,-92.0403,100.6,21.6,11111222
Anadarko,ioos:station:wmo:42398:1,2020-01-04T11:45:00Z,26.1322,-92.0403,100.6,21.5,11111222
Anadarko,ioos:station:wmo:42398:1,2020-01-04T12:05:00Z,26.1322,-92.0403,100.6,21.6,11111222
Anadarko,ioos:station:wmo:42398:1,2020-01-04T12:25:00Z,26.1322,-92.0403,100.6,21.6,11111222
Anadarko,ioos:station:wmo:42398:1,2020-01-04T12:45:00Z,26.1322,-92.0403,100.6,21.6,11111222
Anadarko,ioos:station:wmo:42398:1,2020-01-04T13:05:00Z,26.1322,-92.0403,100.6,21.6,11111222